Theta_e
314 312 315 320 326 329 329 331 330 328 328 326 325 324 322 322 322 320 320 320 320 319 320 320 320 320 320 321 322 324 325 326 327 327 327 327 327 326 324 319 318 319 319 322 324 324 323 321 320 318 325 327 317 314 314 317 322 323 330 328 326 331 330 330 325 320 323 324 321 319 319 320 318 316 316 321 331 333 335 342 337 333 332 330 329 330 335 336
317 316 313 314 321 329 329 331 329 327 327 326 324 324 323 323 323 321 321 321 321 321 321 322 322 322 323 324 324 325 326 326 326 326 327 327 327 327 325 320 318 320 321 322 324 323 324 322 316 317 332 334 319 314 316 315 319 329 330 324 330 338 333 329 326 321 320 320 319 319 320 318 319 319 317 322 331 330 335 341 338 342 339 332 332 332 335 334
315 317 316 312 316 325 329 329 328 327 326 325 324 323 323 324 323 322 322 322 322 322 323 323 323 324 324 325 324 324 325 325 327 327 327 326 327 327 325 323 320 321 323 321 323 322 321 319 314 321 334 334 321 315 317 317 318 327 324 322 337 338 330 326 323 320 318 319 320 319 318 317 318 318 316 323 329 327 333 342 341 347 345 337 334 331 333 333
313 314 315 314 316 323 327 327 327 327 326 325 324 322 323 324 323 323 323 323 323 323 323 324 325 325 325 325 324 324 324 327 329 327 326 326 326 327 326 325 323 324 323 320 321 320 317 314 314 324 334 335 328 317 315 319 318 320 319 326 337 327 322 322 319 319 319 318 318 318 318 317 316 315 316 323 327 324 326 333 339 349 346 336 334 331 331 333
315 315 312 312 314 318 324 327 327 326 326 325 323 322 323 324 324 323 323 323 323 323 324 324 325 325 325 325 325 324 324 329 330 326 326 326 326 327 326 325 323 324 323 319 318 316 315 314 317 327 333 337 332 322 315 316 315 317 320 327 329 319 316 319 318 318 318 317 317 318 318 317 315 313 319 324 323 323 323 325 333 341 339 333 333 332 331 331
316 318 316 314 314 315 320 327 328 326 325 324 323 323 323 324 324 323 323 324 324 323 324 324 325 325 326 325 326 324 325 329 327 324 327 326 326 326 325 323 321 323 322 320 316 314 316 317 324 330 332 334 330 325 317 312 313 316 319 323 324 318 315 318 317 315 317 318 318 318 318 316 315 314 318 321 320 321 319 320 331 334 331 333 333 332 332 331
317 320 320 317 315 316 320 326 328 326 325 324 324 323 323 323 324 324 324 324 324 324 324 324 325 325 325 325 325 324 325 327 322 322 326 325 326 325 323 321 319 323 322 317 314 315 318 320 325 327 330 331 324 323 316 310 312 314 318 321 321 317 315 317 315 315 315 317 317 316 316 316 318 317 315 317 320 319 314 314 325 330 329 332 332 332 332 331
318 320 320 319 317 318 321 326 327 326 325 324 324 324 324 323 323 324 324 324 324 324 325 324 325 324 325 324 325 327 325 324 319 321 326 325 326 324 322 320 319 322 320 316 314 315 317 318 320 321 328 328 320 320 315 311 314 315 318 319 317 317 318 317 315 316 315 314 316 315 317 317 316 314 314 317 317 317 317 319 326 330 330 332 333 333 331 330
317 319 319 320 320 319 318 322 325 327 325 323 323 324 324 324 323 324 324 324 324 324 324 325 326 325 325 323 324 327 325 323 319 319 324 325 325 324 321 320 320 321 318 315 314 315 317 316 316 320 326 323 319 320 313 311 316 313 313 314 314 316 318 316 314 316 316 314 314 316 316 314 312 311 315 317 316 320 325 329 332 330 332 333 333 332 330 330
316 317 319 320 320 317 314 315 319 323 326 323 323 324 324 324 324 324 324 324 324 324 324 325 326 325 325 324 325 327 325 324 320 319 323 325 324 322 320 321 321 321 319 316 314 315 317 316 314 317 322 321 321 321 312 311 313 310 310 311 312 315 316 316 315 314 316 315 314 316 316 315 313 312 317 316 318 328 333 333 332 332 334 333 333 332 330 330
314 316 318 319 319 318 316 314 314 318 324 325 323 324 324 324 324 324 324 324 324 324 325 325 325 325 325 324 327 326 323 323 320 319 323 324 323 320 320 320 319 321 320 317 315 314 315 314 312 315 321 321 323 322 313 310 311 310 310 311 314 316 314 315 315 314 315 314 314 316 315 315 313 314 319 317 319 331 339 335 331 333 334 332 333 332 329 330
312 315 317 315 317 320 319 318 318 318 323 325 324 324 324 324 324 324 324 324 324 324 325 325 325 325 324 326 327 324 322 322 320 320 322 322 322 321 321 319 318 321 321 317 314 315 314 312 314 320 323 321 324 323 314 310 311 310 309 312 316 316 315 316 315 315 315 313 315 316 315 315 314 316 317 314 320 332 337 335 332 332 333 332 332 331 330 329
310 313 315 316 316 317 318 319 320 319 322 326 325 324 325 324 323 324 324 324 324 325 325 324 325 324 325 327 324 320 322 322 320 321 322 321 320 320 319 317 318 320 322 319 314 313 313 312 316 321 322 323 325 321 314 310 310 311 310 312 316 315 317 317 313 315 315 313 316 314 315 318 316 317 313 312 323 334 335 335 332 331 332 331 331 331 331 329
308 310 312 315 317 317 318 320 319 317 319 326 326 325 325 324 324 324 324 324 324 324 324 324 325 324 326 326 319 319 323 321 321 323 322 320 319 319 318 316 317 317 319 318 314 313 313 314 315 316 320 326 326 321 316 311 310 311 310 313 316 317 322 320 313 315 314 313 315 313 314 320 318 317 313 312 322 332 336 336 330 331 331 330 331 330 331 329
307 310 310 312 315 317 318 320 318 314 315 324 327 325 325 325 325 324 324 324 324 325 324 323 324 323 327 325 317 318 322 321 323 324 322 320 319 318 316 314 314 315 316 315 314 314 314 314 315 318 319 321 325 328 323 314 312 313 312 318 318 315 324 324 315 315 315 313 313 312 315 319 318 317 313 311 319 327 330 333 329 330 330 329 330 329 330 329
307 309 311 310 311 314 317 319 319 315 313 321 326 325 325 325 325 325 325 324 324 324 322 322 322 323 328 325 318 319 322 322 322 323 322 319 319 318 314 313 313 314 315 313 313 314 314 315 315 319 318 318 327 333 328 318 317 316 314 322 323 316 319 320 315 315 315 314 312 313 316 319 317 315 312 309 316 323 324 328 328 328 328 328 329 328 329 328
307 308 310 311 310 310 314 319 319 316 313 318 325 326 325 325 325 325 325 324 323 322 321 322 320 323 325 319 317 320 321 322 322 322 321 317 319 318 313 312 312 312 313 312 313 313 314 314 313 316 318 321 326 328 328 320 318 318 313 317 322 318 315 316 317 315 313 314 314 314 314 317 318 314 312 310 312 318 320 323 325 325 324 324 325 327 328 328
308 308 309 311 311 310 312 317 320 317 315 319 325 326 326 326 325 324 322 321 320 319 321 321 320 326 326 317 317 320 319 321 322 321 320 317 318 316 313 312 311 311 312 312 313 312 312 313 315 318 318 319 319 321 326 322 318 320 316 315 318 315 314 316 317 314 312 314 314 314 314 314 316 315 313 310 309 313 316 316 317 319 319 319 320 322 323 325
307 308 309 310 312 311 311 316 321 320 317 321 326 326 326 324 323 321 318 318 319 321 323 321 322 327 325 319 317 318 319 321 321 319 318 317 317 315 312 312 311 312 313 313 313 312 313 314 316 319 318 316 316 317 321 318 315 319 319 318 320 317 314 316 318 314 312 313 314 314 314 314 314 314 313 311 309 310 311 311 311 313 314 315 315 316 317 320
307 308 309 311 312 312 311 315 321 321 316 318 323 325 323 320 320 317 316 319 320 322 324 322 322 321 319 317 316 317 319 319 320 318 318 317 315 314 312 311 312 313 314 315 315 312 313 315 316 318 318 316 316 316 315 313 311 311 313 315 318 318 316 317 317 315 312 314 315 314 314 314 314 314 313 311 310 311 311 311 310 310 311 312 313 314 314 315
308 308 310 311 312 312 311 314 320 320 316 316 320 322 320 319 321 319 318 323 318 316 320 320 319 317 315 317 316 317 319 318 318 316 316 316 314 314 314 312 313 314 314 314 314 313 313 316 316 316 317 316 316 314 312 311 310 309 310 312 314 316 317 316 315 315 313 313 315 315 313 313 313 313 312 310 311 312 312 311 311 311 310 310 311 312 312 312
308 309 310 312 313 313 311 313 319 320 318 318 320 321 320 319 320 319 321 324 317 313 318 318 316 315 314 315 316 318 321 320 319 317 314 315 315 315 314 313 314 314 313 313 313 313 314 315 316 315 315 315 314 312 310 310 310 310 310 310 312 314 315 315 314 314 312 312 317 317 314 314 314 313 312 311 312 313 312 311 311 311 311 310 309 310 311 312
309 309 311 311 312 313 311 313 319 321 320 320 320 321 320 317 317 318 320 321 316 314 317 316 315 315 314 315 316 318 321 321 321 319 314 312 315 315 314 314 314 314 312 312 313 314 315 315 315 314 314 314 313 311 310 310 310 311 311 310 312 314 314 315 314 313 312 312 315 316 315 315 313 313 313 312 312 312 311 312 312 312 312 311 310 310 310 311
309 309 311 310 310 312 311 313 319 321 321 321 319 319 319 317 318 319 318 317 316 315 315 315 314 316 315 315 315 318 321 320 320 319 314 312 314 314 315 314 314 314 312 312 313 314 314 314 313 313 313 313 314 312 311 312 313 313 312 311 312 313 315 315 314 313 313 312 313 314 315 318 317 315 316 314 311 311 311 311 312 312 312 311 311 311 311 310
308 308 309 308 309 311 311 314 319 321 321 320 319 318 317 317 318 318 317 318 318 315 314 314 313 315 315 313 316 319 322 320 317 316 313 311 313 313 314 314 315 315 312 312 313 313 313 312 313 313 312 313 313 313 312 312 313 314 314 313 312 312 315 316 315 314 313 315 316 312 315 327 330 320 316 314 311 311 310 311 312 312 312 311 311 311 310 310
308 308 309 308 308 310 313 317 319 320 319 319 318 316 316 318 318 317 319 321 320 316 316 318 315 316 314 313 315 319 323 319 315 313 312 311 311 312 315 314 314 315 312 311 312 313 313 311 312 313 313 313 314 313 313 313 312 313 315 314 312 312 315 318 317 315 318 319 315 312 316 327 328 320 317 316 316 314 311 311 312 311 311 311 311 310 310 310
308 308 310 309 308 311 315 318 318 319 318 318 317 316 317 317 317 318 321 325 323 317 316 317 315 315 314 312 315 321 324 319 314 313 312 311 310 310 315 314 312 312 311 310 311 312 312 311 312 314 313 313 313 312 313 312 310 314 318 318 315 312 316 320 317 317 321 317 314 315 317 319 318 317 317 315 316 318 315 313 313 310 309 311 310 310 310 310
308 308 310 310 309 311 314 317 318 317 317 317 316 317 317 316 316 318 321 328 324 316 316 314 312 314 312 311 314 318 319 316 316 315 312 311 310 309 313 313 313 313 310 310 313 312 311 312 312 313 313 313 312 312 314 312 311 316 321 320 318 315 317 319 316 317 318 314 318 321 314 314 320 322 320 315 312 315 317 316 317 313 311 310 310 310 310 310
308 309 311 310 310 311 313 316 318 317 316 315 314 317 317 315 317 319 321 325 319 314 316 314 313 313 312 313 314 314 314 314 318 316 311 311 311 308 311 311 310 311 309 310 313 312 310 311 312 311 312 312 312 313 315 312 311 317 319 319 320 321 319 317 317 318 314 312 320 322 314 313 321 327 323 315 312 315 316 316 316 315 312 310 309 309 309 310
308 309 311 311 311 313 315 317 318 317 316 315 315 316 316 316 319 321 322 322 317 314 314 313 313 313 312 314 313 313 315 314 315 314 313 313 311 308 309 310 310 311 311 309 312 316 312 310 312 312 313 314 313 315 315 314 314 315 317 319 319 322 323 322 326 322 313 316 323 323 317 312 317 325 321 315 316 318 317 315 315 315 314 314 314 311 309 309
309 310 311 312 312 314 316 317 318 317 316 315 315 315 316 318 319 322 322 319 316 315 313 313 314 312 312 314 314 313 314 314 313 314 314 314 312 310 309 310 311 313 313 310 312 315 312 311 312 313 317 316 312 314 315 316 316 315 320 321 318 323 323 324 329 321 313 321 324 319 316 312 314 321 318 316 317 316 315 316 317 317 317 319 320 317 312 310
311 311 312 312 312 314 316 317 317 316 316 316 315 315 318 319 319 321 320 316 317 315 313 314 313 312 312 314 314 313 313 315 314 313 314 314 313 311 310 311 310 311 312 311 313 314 314 316 315 312 314 315 314 315 315 315 316 315 320 318 316 322 321 318 323 319 316 320 315 312 314 313 314 317 315 315 314 314 313 312 315 317 317 319 321 322 320 316
312 312 312 312 313 315 317 317 316 316 315 315 316 317 319 320 321 321 317 316 317 315 313 314 313 312 313 314 314 312 313 315 314 314 314 314 314 312 312 313 312 314 314 312 313 314 316 320 317 313 313 314 315 314 314 318 316 314 317 316 317 322 318 316 318 316 317 318 312 309 313 315 316 316 316 315 312 314 313 309 311 312 312 315 317 322 325 321
313 313 313 313 313 315 316 316 315 315 314 315 317 318 319 321 321 318 316 315 314 313 314 314 313 313 313 314 313 311 313 314 313 315 314 313 315 313 313 313 311 317 318 313 313 314 315 317 315 314 314 314 314 315 319 322 316 315 318 318 321 325 321 320 321 320 320 319 313 309 313 320 321 317 316 315 312 313 312 312 314 311 310 312 314 321 327 324
314 313 313 313 314 316 316 315 315 315 315 316 319 319 320 323 321 317 315 313 312 314 314 313 313 314 314 314 312 311 315 314 312 315 315 314 314 313 312 311 310 316 317 311 312 313 312 314 314 314 314 313 315 317 319 319 316 317 319 317 319 323 324 320 319 323 323 319 315 311 315 323 320 313 313 312 312 313 312 313 315 316 318 317 318 325 328 326
314 313 314 315 316 316 316 314 314 315 316 318 319 319 320 321 320 317 315 312 312 314 314 314 314 314 314 313 312 312 315 314 312 315 315 314 314 313 313 311 310 313 312 311 315 314 311 313 314 314 314 313 315 317 317 318 317 315 315 317 317 317 322 320 313 314 316 315 317 313 314 321 317 312 315 316 315 314 313 314 314 318 323 323 326 328 326 327
314 314 314 315 316 316 314 314 315 315 317 319 319 319 319 319 318 317 314 311 313 313 314 315 315 315 314 313 313 313 313 313 312 314 315 314 315 313 312 312 311 310 311 312 315 315 315 315 314 315 315 311 311 314 317 317 316 315 315 318 315 313 320 323 317 316 315 313 319 316 314 318 317 315 321 322 316 313 313 313 313 317 321 326 329 327 324 324
315 315 315 316 316 315 314 313 315 316 319 320 318 319 320 318 317 316 313 312 313 313 314 316 315 315 314 314 313 312 313 313 312 314 314 313 316 315 311 312 311 310 311 313 313 315 318 317 313 313 314 313 311 314 315 313 311 315 317 316 315 315 317 318 316 318 314 312 321 321 314 314 316 317 321 319 315 316 314 312 314 316 318 323 328 327 323 322
315 316 317 316 315 314 313 313 315 318 320 320 318 318 319 317 315 314 312 312 313 314 315 316 315 315 314 314 314 312 313 313 311 313 314 313 316 315 311 311 312 310 310 312 315 315 317 319 317 312 312 313 313 314 315 314 310 312 313 311 314 317 318 318 316 317 315 313 320 320 315 317 319 319 320 315 314 318 316 317 319 317 316 317 320 323 323 322
315 316 317 316 314 314 313 313 316 318 319 319 318 318 318 315 313 312 312 313 314 315 316 316 315 315 314 314 314 312 313 313 311 313 314 313 314 312 311 311 311 310 310 312 316 315 313 318 319 314 311 313 316 317 317 317 313 313 314 312 312 313 315 317 316 318 320 319 320 317 316 326 326 317 316 313 312 314 315 318 320 319 319 316 313 316 318 318
315 316 317 314 314 314 313 315 318 318 318 319 318 317 316 314 311 310 312 313 314 314 315 315 315 315 314 314 313 312 313 313 311 313 314 312 312 311 311 311 311 311 310 311 316 317 314 316 319 317 314 316 319 317 315 317 315 315 315 314 313 314 316 317 314 316 318 317 320 317 315 327 329 317 313 313 312 312 313 316 317 318 319 315 311 310 312 315
315 316 316 314 313 313 314 317 318 317 317 319 317 315 314 312 310 311 313 313 314 315 314 314 315 314 314 314 313 313 314 313 312 313 313 312 312 311 311 311 311 310 311 312 315 318 319 321 324 322 318 318 317 312 311 315 316 315 315 314 313 315 318 316 314 317 316 312 317 316 312 320 330 323 315 311 311 313 313 314 315 317 317 314 310 308 310 314
316 316 315 313 313 314 316 318 317 317 317 316 314 313 313 311 310 311 312 313 314 315 314 313 313 313 314 314 314 313 313 313 312 312 312 311 310 312 312 310 310 310 312 313 314 316 317 319 323 322 320 321 321 316 312 312 314 315 315 315 313 314 317 318 318 320 318 315 315 313 311 319 332 329 319 314 314 315 314 314 315 318 320 317 312 310 314 315
316 315 315 314 313 315 317 317 316 316 316 313 312 314 313 311 311 312 313 313 313 314 313 313 312 313 314 313 313 314 314 315 314 312 314 312 310 313 313 309 310 312 310 312 313 313 313 316 320 320 319 320 321 318 314 312 313 316 317 315 315 316 316 316 315 313 316 320 318 313 313 320 328 326 317 315 316 316 315 315 315 318 323 323 318 314 314 314
315 315 315 314 313 316 317 316 316 317 316 313 313 314 312 310 310 312 313 313 313 313 313 313 312 312 313 313 314 313 313 316 315 312 314 313 310 313 312 309 311 311 310 315 314 312 316 319 318 318 318 317 316 315 315 315 315 316 318 317 316 316 314 315 317 313 314 320 319 314 313 317 321 318 313 314 315 314 316 317 314 313 315 318 321 319 316 314
316 316 315 314 314 316 317 316 317 316 315 314 313 313 311 310 310 312 313 314 314 313 313 313 313 312 312 313 314 313 313 315 315 313 312 312 312 313 311 310 311 311 315 320 315 315 323 321 314 314 315 313 313 316 318 319 316 315 317 318 317 316 314 317 321 317 314 317 317 314 312 313 315 313 311 315 316 316 320 318 315 314 313 319 327 325 317 313
316 315 314 315 315 315 314 314 316 316 315 314 314 313 312 311 311 311 312 314 315 314 312 312 312 312 313 313 313 313 313 314 315 313 312 312 314 313 310 310 311 314 320 319 313 317 324 318 314 316 314 313 319 322 319 317 315 314 316 316 316 316 315 317 317 314 315 316 314 313 313 312 313 314 315 319 317 317 318 315 316 317 316 323 328 322 316 314
314 315 314 315 314 314 314 313 312 315 315 314 314 314 312 311 311 311 311 313 314 313 312 312 312 312 312 313 314 313 312 313 314 313 312 314 314 312 310 308 309 315 319 314 312 316 317 315 315 316 314 315 322 324 320 316 314 314 315 315 315 316 316 316 315 314 316 314 311 315 318 314 312 314 316 317 316 314 313 311 312 313 316 323 323 321 323 321
311 311 311 312 312 313 315 313 311 313 314 314 314 314 312 311 311 311 313 313 312 311 312 313 312 313 313 312 313 313 312 313 313 312 312 313 313 312 311 310 310 313 314 312 313 314 314 315 316 314 312 313 317 319 318 317 315 315 316 316 314 315 315 314 313 313 314 314 312 316 320 315 312 315 317 317 315 312 310 310 311 313 320 330 328 327 331 328
312 313 309 310 312 313 315 314 312 313 314 313 313 313 312 311 311 312 315 314 311 311 313 313 312 312 312 313 313 313 312 313 314 313 311 312 313 311 311 312 312 312 311 311 311 311 313 315 314 313 313 312 314 315 314 315 316 316 317 316 314 314 314 312 313 313 314 313 312 314 316 314 312 314 315 317 317 313 310 313 316 314 318 326 331 332 333 332
309 311 310 312 313 313 315 315 313 314 313 312 312 313 313 311 311 312 314 315 314 312 312 312 313 312 312 312 314 313 312 312 313 312 311 312 312 311 311 313 313 311 312 312 312 312 314 314 312 314 315 313 314 316 315 313 313 314 316 316 314 313 313 312 313 314 313 312 313 314 314 312 312 314 313 314 315 314 312 314 316 316 316 322 332 336 334 333
305 308 311 314 314 312 314 315 314 315 313 312 312 313 313 312 312 311 313 317 319 316 314 313 312 311 312 313 313 313 313 313 313 312 312 311 311 312 312 313 312 311 312 313 315 317 317 316 315 316 317 315 313 315 316 315 314 314 315 314 312 312 312 312 313 314 313 312 313 313 312 314 315 314 313 314 314 315 315 315 314 314 315 318 323 327 329 330
Wind_Speed
23 25 24 27 33 38 42 43 45 44 43 43 42 42 40 40 39 38 38 36 35 36 34 34 32 31 30 28 26 23 21 18 15 13 11 9 7 10 14 13 12 11 9 8 9 11 9 8 8 11 9 7 6 5 7 4 2 3 2 3 2 3 4 5 7 7 4 5 7 6 6 9 6 3 2 3 5 3 3 4 3 3 3 3 4 8 27 28
23 23 24 26 30 36 42 43 45 45 43 44 43 42 41 40 40 38 38 36 35 36 35 34 33 31 30 28 26 22 20 16 12 10 13 12 9 12 14 13 13 12 11 11 15 16 11 6 6 9 6 3 3 5 6 4 2 2 3 2 3 5 5 6 7 6 4 5 7 7 6 8 9 6 4 3 2 1 4 2 5 4 4 2 5 17 27 27
22 22 22 25 27 32 41 42 43 46 44 45 44 43 42 41 40 39 38 37 36 37 36 34 33 31 29 27 25 23 18 10 5 7 15 15 11 14 16 13 13 11 9 13 17 17 15 11 9 8 4 2 2 3 4 4 2 1 3 1 5 5 5 5 7 7 5 5 8 7 5 5 7 6 4 5 5 4 5 4 0 1 2 3 9 19 24 25
25 25 24 25 24 27 38 42 41 46 46 45 46 44 43 41 41 40 38 37 37 37 36 34 33 30 28 26 24 24 15 5 3 7 15 19 16 17 17 13 11 10 10 17 18 18 20 17 13 7 3 2 3 3 4 3 2 1 3 4 6 3 3 6 6 7 5 6 8 6 5 4 6 4 4 8 7 5 6 7 7 8 9 8 10 16 21 22
25 26 28 28 25 24 32 41 43 46 47 45 46 46 44 43 41 40 39 37 37 38 36 34 33 29 28 25 23 23 14 3 5 12 18 20 20 20 19 15 12 11 14 19 20 21 21 15 10 6 3 2 3 2 3 3 2 2 3 5 6 3 3 6 4 6 5 7 6 6 7 6 5 3 5 11 9 6 7 9 10 10 13 15 15 17 19 19
24 24 25 26 25 24 29 40 43 47 49 46 47 46 45 44 42 41 39 37 37 37 36 34 32 30 28 25 23 23 13 3 4 14 21 21 22 22 20 18 16 14 13 19 21 20 15 10 6 4 2 3 3 1 3 4 2 1 4 4 5 3 4 4 3 3 5 9 9 8 6 6 7 2 5 11 10 7 5 7 8 9 15 21 21 19 17 16
24 21 21 23 23 22 27 38 43 46 51 48 47 47 46 45 43 42 39 38 37 36 36 34 32 29 27 25 21 16 9 5 3 12 23 23 24 23 22 22 19 16 15 21 21 13 9 8 5 5 3 3 2 2 4 5 2 2 4 7 6 4 5 4 4 3 4 7 8 4 4 8 9 5 4 8 10 6 5 3 8 10 15 19 17 17 18 20
21 20 20 22 24 22 24 34 41 45 51 50 48 48 47 47 44 43 41 38 37 36 35 32 31 29 28 26 16 7 6 7 3 10 25 26 25 25 25 25 21 18 19 22 22 15 10 9 7 5 3 3 2 1 4 6 4 2 4 6 6 4 5 4 4 1 3 3 2 6 5 6 6 4 5 9 10 5 3 4 9 11 13 13 13 14 16 19
19 22 22 22 24 25 26 30 36 42 53 53 50 50 47 47 46 44 42 39 38 37 34 32 30 30 30 23 10 4 7 8 3 9 25 28 26 28 27 26 24 21 21 22 24 21 10 5 6 5 4 4 2 1 2 3 1 1 4 7 7 7 6 3 3 2 3 1 3 7 4 1 1 1 3 9 8 3 2 7 9 10 11 11 11 13 15 15
18 23 23 21 23 26 27 29 30 34 50 56 51 52 49 48 47 44 43 41 38 37 34 33 31 31 29 18 9 6 7 9 6 9 23 27 28 30 27 26 27 24 20 19 21 19 10 8 10 8 6 4 2 0 2 1 1 4 6 8 8 8 7 2 2 3 1 1 3 7 4 2 3 1 4 7 5 6 7 7 7 10 12 12 11 11 15 16
17 21 22 20 21 24 24 26 26 26 41 56 53 52 51 48 48 45 44 42 40 38 35 34 33 31 24 15 9 6 7 11 11 14 24 28 29 30 26 25 28 25 21 16 13 15 16 21 19 10 4 3 2 0 2 2 3 7 6 8 9 5 6 2 1 3 1 1 3 6 2 3 4 1 6 6 5 7 9 9 8 10 10 11 12 10 13 16
17 20 24 24 24 25 24 25 26 25 34 52 55 53 53 50 49 47 44 43 40 39 37 35 34 30 20 10 6 5 7 13 15 20 26 27 28 28 23 23 25 23 22 15 8 15 25 29 22 8 2 6 3 1 2 2 5 6 3 5 8 6 5 5 2 1 1 2 4 6 1 4 2 6 6 2 5 7 8 10 9 9 9 9 10 8 10 15
19 20 24 27 26 26 27 26 27 25 31 50 56 52 54 51 50 48 45 44 41 39 38 35 34 29 17 5 3 6 8 12 17 22 26 27 25 22 18 21 21 19 22 19 14 21 28 28 20 9 3 6 3 2 2 4 4 4 2 2 3 5 5 6 1 2 1 1 3 5 2 5 8 12 5 2 6 8 7 8 8 8 7 7 8 7 9 12
21 21 22 26 26 26 28 27 28 27 28 44 57 53 53 51 50 49 46 44 42 40 38 36 34 25 12 3 2 8 9 13 18 21 26 25 22 18 16 17 16 15 19 20 20 22 25 24 20 11 2 3 3 0 4 4 2 4 3 1 1 1 4 7 1 4 4 1 2 5 4 6 9 12 5 4 6 9 9 8 8 8 6 6 7 8 8 10
22 22 22 24 25 25 26 25 29 31 28 37 56 53 50 51 49 48 46 44 41 41 39 36 31 19 6 1 3 9 13 15 18 22 25 25 22 15 12 14 12 13 18 21 21 20 22 21 15 7 1 2 4 4 4 3 3 3 2 3 2 3 4 8 2 5 6 1 2 5 4 6 8 9 4 4 6 7 9 8 8 8 8 8 7 8 8 9
23 24 24 24 24 24 26 25 26 32 30 32 50 54 51 51 48 47 45 42 40 41 38 27 22 14 4 2 5 11 11 11 16 21 23 24 21 15 14 18 16 17 20 20 20 21 20 14 6 3 3 2 3 5 3 3 4 3 1 3 2 3 2 5 3 3 3 1 0 2 3 4 6 6 5 3 8 7 8 8 9 9 9 9 7 8 8 8
24 25 25 26 25 23 26 26 26 32 33 34 46 52 50 49 47 46 42 41 40 39 33 22 19 12 2 3 6 9 9 9 15 21 23 21 18 19 21 16 14 19 20 17 18 16 10 5 1 2 3 2 4 5 3 5 6 2 0 3 3 3 3 2 4 4 1 2 2 4 4 6 7 5 5 1 7 7 8 9 9 9 8 8 8 7 8 9
25 26 26 27 27 25 25 26 27 31 34 39 51 52 49 49 47 43 38 38 35 28 21 16 18 9 4 7 7 8 13 15 16 20 23 19 18 22 20 12 12 17 15 9 9 7 2 2 1 3 2 3 6 7 8 7 5 3 2 2 2 3 3 3 4 3 3 2 3 5 5 9 11 8 5 1 4 6 9 8 6 8 8 7 7 7 8 9
26 26 27 28 28 26 26 27 29 32 33 36 51 57 49 44 39 35 35 34 24 13 9 10 15 7 3 10 9 12 20 22 18 18 21 18 19 20 13 14 14 13 10 4 3 4 2 2 2 4 6 8 8 9 9 3 3 5 3 2 3 3 3 4 4 4 3 4 4 7 7 10 13 11 6 1 3 6 8 6 5 6 6 7 7 7 8 9
27 27 28 28 29 28 26 28 31 35 34 32 39 44 31 22 17 12 16 21 15 5 5 12 14 4 6 10 12 18 20 16 11 13 21 20 19 17 8 9 9 5 7 7 5 4 3 5 6 7 8 9 9 9 8 3 2 3 2 1 2 3 3 4 3 5 1 4 6 7 8 10 11 12 7 2 1 4 8 8 8 7 6 7 8 9 10 11
28 28 28 28 29 29 28 30 32 37 36 36 32 20 13 13 10 11 12 12 10 2 6 16 12 3 8 16 21 24 15 6 5 6 19 20 17 15 5 5 8 3 5 8 6 3 3 7 7 5 5 7 8 7 6 6 6 5 4 3 3 3 4 5 3 5 2 3 4 2 6 10 11 11 7 1 3 6 10 10 10 10 8 8 9 11 11 10
29 28 28 29 29 29 31 30 33 40 38 38 30 10 12 10 6 26 26 10 4 1 8 15 8 5 10 18 26 28 15 4 4 4 15 19 14 11 5 6 9 5 5 7 6 4 5 6 4 4 5 6 6 6 6 6 6 5 5 3 4 3 3 5 3 3 2 2 3 1 4 9 11 11 6 4 6 8 9 10 10 10 9 9 10 10 10 10
30 30 30 30 30 30 33 32 34 41 38 38 28 12 14 10 10 34 27 8 2 3 6 10 7 7 9 8 14 20 14 8 8 8 14 17 12 9 8 9 9 7 6 8 8 7 6 5 5 7 6 8 8 7 6 5 4 5 3 4 5 2 2 3 3 2 2 1 1 1 3 7 8 8 6 7 9 8 6 8 9 8 10 11 10 8 9 11
32 32 31 32 33 32 34 35 35 41 41 42 34 16 16 22 28 38 21 7 3 3 2 7 6 8 8 6 9 10 8 6 6 10 15 14 8 7 9 10 11 8 8 10 11 8 5 5 8 9 8 11 11 9 8 5 4 5 5 6 5 4 5 4 2 0 1 2 2 2 3 5 6 6 8 7 5 7 6 6 8 8 10 10 7 8 10 11
35 35 35 37 35 35 37 33 33 44 42 37 31 16 21 35 36 33 17 5 3 3 0 4 2 5 8 8 8 6 6 3 2 7 13 13 9 8 7 6 7 8 10 11 10 6 5 6 10 11 10 11 12 10 9 6 4 5 5 8 8 7 6 3 1 2 2 3 2 1 2 6 5 5 9 6 2 6 5 5 9 10 10 9 8 11 11 10
38 38 39 40 40 39 32 21 29 42 33 23 25 20 26 40 38 25 12 3 2 2 6 6 3 9 11 5 3 8 7 2 2 5 9 11 8 7 6 4 1 6 10 8 5 3 5 6 10 13 13 12 11 10 8 7 5 4 5 9 10 7 4 3 4 3 3 4 3 1 4 6 6 4 8 5 4 8 6 5 10 10 10 9 10 12 10 9
40 41 41 43 43 39 25 15 25 31 19 19 28 26 28 40 38 17 5 3 4 3 6 3 0 10 12 4 6 10 6 5 5 3 7 11 7 4 7 6 3 4 6 5 2 2 6 7 8 11 12 11 10 9 8 8 6 4 3 7 8 7 6 6 7 5 3 3 2 3 3 3 5 5 6 2 4 9 8 8 10 10 11 12 12 12 11 11
43 45 44 45 45 43 34 22 25 25 23 32 37 32 32 33 25 10 3 5 5 4 5 2 4 12 9 3 6 4 4 11 10 4 9 11 6 1 6 9 8 9 8 8 6 3 7 11 12 13 11 9 10 8 8 9 6 6 3 6 6 5 5 5 7 4 1 1 3 3 2 2 6 6 4 3 3 9 9 10 11 11 13 13 13 13 11 11
47 48 47 49 46 47 47 31 27 34 39 44 41 39 37 22 8 5 3 5 3 4 6 5 7 11 8 6 4 2 5 8 5 5 8 8 5 0 5 8 9 11 9 7 7 3 3 8 12 14 11 8 8 6 8 10 6 4 4 7 5 4 4 3 5 3 2 1 6 5 3 3 5 5 3 2 3 7 8 9 10 10 10 10 10 11 10 9
51 52 51 51 44 45 46 33 30 39 45 48 45 42 34 15 4 6 6 5 4 3 5 6 7 9 14 12 4 3 8 3 2 6 5 4 3 1 2 5 6 7 4 3 6 4 1 0 4 8 7 6 7 4 5 9 7 5 6 5 6 5 4 3 2 3 2 3 6 6 3 2 4 5 4 4 5 7 8 8 8 7 7 7 9 9 9 8
55 57 55 52 47 45 35 22 25 34 45 52 47 36 22 6 2 6 6 5 5 4 5 7 9 12 18 17 8 7 9 6 6 11 7 4 5 2 3 5 4 4 4 5 6 3 4 2 1 2 2 4 5 3 1 3 6 6 4 4 4 2 2 2 3 2 3 5 6 4 1 3 5 5 4 6 6 6 8 7 8 8 7 7 7 7 7 7
58 60 58 56 54 49 34 24 30 41 52 55 40 21 10 4 3 4 5 7 6 7 9 11 15 16 18 17 10 8 9 7 9 13 12 9 8 6 6 7 7 6 6 8 5 0 1 2 2 1 1 4 7 5 2 2 4 5 4 6 5 1 1 2 2 1 4 5 3 2 1 2 5 7 8 9 11 10 9 9 9 9 8 8 7 6 6 5
61 61 60 61 56 49 43 39 43 51 56 51 28 8 5 6 5 2 6 7 7 9 11 14 17 18 19 16 10 8 7 5 10 13 11 8 7 6 4 5 8 7 5 6 6 5 3 5 3 2 2 3 7 7 4 2 4 5 5 6 6 3 4 6 3 1 3 4 3 2 1 2 4 6 10 14 14 11 8 9 10 9 9 9 8 7 6 5
62 61 60 61 57 51 46 44 52 61 55 35 16 7 7 6 2 4 6 6 6 10 10 12 16 16 14 11 9 10 5 2 7 12 11 8 7 7 6 7 8 5 5 6 5 7 7 4 4 5 3 4 7 6 6 7 5 4 4 4 5 5 5 6 3 3 4 3 3 2 1 3 3 4 8 11 11 9 5 7 8 7 9 8 7 7 6 6
61 62 59 56 53 48 45 46 57 64 46 20 9 9 10 6 3 4 6 5 7 10 11 13 17 15 8 6 8 9 4 2 6 8 10 11 9 10 10 9 9 6 7 7 4 5 9 6 3 1 1 4 7 4 4 8 5 4 2 3 4 5 5 3 3 5 4 1 2 2 3 4 4 6 9 6 7 9 7 8 7 7 8 5 6 7 6 5
56 56 51 46 44 44 46 51 61 59 34 13 9 9 7 5 5 7 7 8 11 15 18 15 13 12 7 4 7 6 2 4 10 7 7 10 9 10 9 7 9 9 9 9 4 3 7 3 3 2 2 1 5 4 3 4 4 2 2 4 5 2 7 4 1 1 3 2 3 1 3 5 3 7 10 5 7 9 8 7 7 7 6 5 6 6 5 6
46 42 34 35 41 46 50 56 62 51 24 11 11 9 7 6 7 10 9 11 14 19 21 15 10 12 11 7 9 9 4 6 10 8 6 8 7 10 11 7 9 12 10 6 3 3 5 2 3 0 2 2 1 4 2 1 3 5 3 6 3 2 3 3 2 1 3 4 4 0 4 5 1 4 7 7 8 11 10 7 6 7 6 6 8 7 6 7
38 31 21 29 44 47 53 59 53 34 14 11 13 11 9 8 9 12 11 12 14 15 16 12 9 11 13 12 12 14 13 10 9 9 9 8 6 11 17 10 7 12 10 5 3 2 5 3 3 1 2 2 3 4 2 2 1 4 4 5 4 3 2 1 3 3 2 4 4 3 3 3 4 5 5 7 8 10 10 6 5 7 8 8 8 7 7 6
30 19 9 28 47 51 59 57 35 17 11 12 13 10 6 6 9 13 14 16 16 14 12 11 9 9 11 14 15 15 14 13 14 11 9 9 5 8 17 11 5 11 11 6 5 4 4 5 2 2 0 1 3 1 6 3 1 2 1 2 1 2 4 3 3 4 3 3 3 3 4 3 6 6 6 10 11 10 8 6 5 8 8 8 7 7 7 6
19 10 6 31 50 54 60 45 19 11 12 12 12 9 7 6 8 14 20 21 16 9 10 13 13 11 11 12 14 13 9 10 15 11 6 9 6 5 13 12 6 8 8 5 4 4 3 4 3 2 2 1 1 3 7 7 3 2 3 4 2 0 2 2 1 3 4 4 3 3 4 5 6 6 9 13 13 10 8 6 6 7 8 8 7 6 6 6
13 8 7 34 54 55 47 23 9 11 10 11 12 9 8 7 7 15 21 20 12 2 5 14 16 13 12 12 12 13 9 8 13 9 4 8 9 4 8 12 10 9 8 4 4 5 2 3 5 2 0 3 3 3 4 5 5 4 4 6 5 3 4 3 4 1 2 3 4 4 5 7 6 5 9 12 12 9 6 5 6 7 7 7 7 7 6 6
13 7 9 40 58 51 30 9 6 10 8 11 11 6 7 6 9 16 19 16 9 1 3 9 12 12 12 11 11 11 9 9 11 10 5 8 11 7 6 11 14 12 10 5 3 5 3 4 5 2 3 5 4 2 1 2 2 2 3 4 5 5 5 5 6 3 1 1 2 3 4 8 6 5 8 10 8 5 3 5 6 8 7 6 6 6 5 5
12 7 17 48 59 43 19 7 10 10 6 8 7 6 6 6 11 15 15 14 9 4 5 7 9 11 10 10 11 10 8 7 8 10 6 5 7 6 7 13 16 14 10 5 5 5 3 4 4 1 3 3 5 4 3 2 2 1 4 2 3 4 2 3 5 3 3 4 3 2 5 8 6 4 6 7 6 5 4 5 6 7 7 6 5 5 5 5
9 6 13 40 54 40 15 7 13 10 7 8 6 5 3 4 12 15 16 16 10 7 10 9 12 13 12 14 16 16 14 7 7 8 5 5 5 4 11 17 17 14 10 7 8 7 3 3 5 3 2 4 4 3 3 2 2 2 2 0 2 2 5 3 2 3 2 6 6 5 7 7 5 3 2 4 5 5 7 6 6 7 6 5 5 4 4 3
11 4 4 19 32 29 10 6 14 13 11 13 10 9 6 4 11 15 19 16 7 8 10 8 11 12 13 16 15 17 16 8 6 6 2 4 4 2 10 19 19 15 11 8 9 7 4 4 5 6 6 5 6 7 6 5 3 1 1 2 4 5 6 4 2 2 6 5 5 7 9 6 4 6 4 4 5 5 7 6 5 6 6 5 5 4 4 3
12 4 6 8 10 14 5 3 13 14 15 16 11 10 11 9 8 11 16 12 3 6 7 5 9 10 11 16 13 13 15 5 4 8 6 7 6 2 8 18 18 15 12 14 14 9 3 3 6 8 11 11 11 8 6 9 8 8 10 9 8 8 8 5 4 5 8 3 5 12 11 6 5 5 6 6 5 5 7 6 4 5 5 6 5 4 3 4
8 6 10 9 5 9 6 4 10 11 15 18 11 11 15 14 10 8 10 7 5 8 5 4 11 12 14 19 13 13 16 6 5 12 14 10 6 2 5 11 13 13 14 14 13 8 5 5 9 11 12 10 6 5 6 11 12 15 14 12 9 8 9 8 9 11 6 4 10 10 3 5 8 5 6 8 7 6 5 5 4 5 6 5 3 2 3 4
4 5 9 9 6 7 8 10 9 8 16 18 10 11 17 16 15 13 8 3 6 10 6 4 14 19 21 23 16 13 15 8 5 11 12 8 5 5 5 5 7 9 12 12 10 7 6 9 10 11 11 6 4 6 9 10 9 9 11 13 12 11 12 15 19 15 8 8 15 6 6 10 9 6 9 9 7 6 5 4 5 5 6 4 3 3 4 5
3 3 3 3 5 9 14 17 14 11 16 15 8 9 15 17 18 14 6 5 8 12 11 11 18 23 25 23 17 14 16 13 10 12 14 13 12 10 9 5 4 3 6 9 6 3 5 7 6 9 10 4 3 6 9 10 8 6 10 14 13 15 18 21 22 16 11 16 15 1 5 11 5 6 10 8 6 6 4 4 5 6 4 3 4 4 4 6
4 5 5 4 4 9 14 18 19 15 13 12 10 11 14 18 21 14 6 9 15 16 16 20 22 23 26 25 19 18 23 24 21 19 18 17 14 11 9 7 5 3 4 7 4 1 2 3 3 7 6 3 2 4 5 7 8 7 9 11 14 18 20 20 17 10 9 17 12 5 13 12 4 7 9 7 7 5 3 5 7 6 2 4 4 5 6 8
2 4 7 9 7 8 10 12 15 15 12 11 11 12 13 18 22 16 6 5 12 15 18 24 25 19 19 22 21 23 27 27 23 22 22 20 17 13 8 5 8 9 5 5 4 2 3 2 2 6 5 4 2 6 5 4 5 3 7 12 17 18 16 14 11 9 12 15 10 9 14 10 5 7 7 5 5 4 6 9 8 7 4 6 7 8 8 9
3 3 4 7 8 8 10 10 11 12 12 11 10 9 11 15 17 17 8 1 4 8 9 15 20 15 14 21 23 21 20 15 12 12 14 15 14 11 8 10 16 17 11 7 4 3 6 5 2 5 6 4 2 7 8 7 4 3 9 14 17 15 11 9 9 11 16 13 9 12 13 5 5 6 6 5 6 8 10 10 9 8 6 7 8 9 9 11
Wind_Direction
229 230 228 221 212 203 196 196 195 191 191 191 188 187 187 186 186 185 184 185 185 183 184 186 186 187 186 186 184 182 183 181 177 175 181 187 186 171 147 129 129 136 138 143 137 120 86 53 32 25 27 20 7 326 328 338 42 43 79 109 179 192 200 189 179 193 178 185 198 199 176 154 166 175 149 54 46 60 78 11 320 334 7 194 253 162 161 165
225 226 232 231 220 207 198 198 196 192 190 190 188 187 186 186 186 185 183 185 185 182 182 182 183 183 180 181 178 177 178 172 171 180 193 190 185 178 154 138 135 134 139 132 131 125 101 73 56 55 54 34 5 333 333 336 28 88 121 130 216 206 214 195 175 190 182 177 178 183 186 171 172 163 142 129 184 202 116 347 336 3 9 60 144 148 155 162
225 221 228 230 227 217 205 200 194 191 191 190 188 187 186 186 185 184 183 184 184 181 181 180 180 178 176 175 172 179 174 151 158 201 202 195 193 185 165 155 149 144 144 129 129 130 123 118 102 84 65 43 20 339 334 330 338 168 136 197 242 217 240 232 184 200 202 162 163 180 183 181 181 153 146 153 175 217 185 197 165 184 224 126 146 149 153 162
230 227 230 231 231 227 213 205 196 191 191 190 188 187 187 186 184 183 183 184 184 182 180 178 177 176 176 174 174 176 158 114 216 205 199 197 197 191 177 169 161 159 143 122 120 124 119 108 98 83 78 88 359 338 312 311 343 292 165 196 235 194 256 257 202 210 206 161 164 165 136 168 192 145 143 142 146 245 241 217 197 185 178 158 162 157 156 163
230 232 236 237 236 236 219 205 198 193 191 190 188 187 186 185 184 183 183 184 184 183 180 178 176 174 174 172 173 165 138 97 215 191 195 194 192 191 182 173 166 166 145 123 114 113 110 96 87 66 59 104 19 347 284 314 46 309 240 218 232 180 254 268 221 208 177 136 139 151 157 169 165 132 157 154 165 225 227 221 209 182 165 162 167 164 162 167
227 230 230 234 232 238 226 204 196 194 191 190 188 187 186 184 183 182 183 184 184 184 182 180 177 173 170 166 168 162 150 179 185 185 194 189 185 184 176 169 165 167 152 131 119 111 104 81 80 85 61 85 66 209 276 321 59 308 281 284 268 207 238 295 327 240 155 133 158 174 180 142 132 169 179 173 192 224 237 216 197 180 167 163 163 165 168 173
223 224 222 226 223 227 227 209 201 195 189 189 189 187 186 184 183 182 183 184 184 185 182 181 179 175 169 163 164 163 172 209 164 184 191 185 183 176 168 166 164 168 155 134 123 116 112 97 104 108 92 103 110 219 290 319 63 149 260 298 292 219 222 301 332 275 152 159 183 156 140 151 164 179 155 196 218 252 295 207 162 163 159 157 161 171 178 180
216 217 218 221 216 217 224 215 209 199 188 188 189 187 186 184 184 183 183 184 184 185 183 181 178 175 169 162 158 160 189 203 153 175 183 180 177 170 166 166 165 167 157 145 137 130 120 113 129 118 102 121 91 259 293 334 28 132 248 289 301 265 250 298 321 298 124 176 143 106 152 178 185 157 143 213 232 270 319 125 140 147 149 158 171 181 186 186
214 213 216 218 216 217 226 222 215 203 190 187 188 187 186 184 184 183 183 184 184 185 182 178 175 172 171 163 148 165 195 195 151 169 181 179 174 172 172 169 169 169 158 155 151 141 128 128 151 145 137 133 95 318 331 9 30 248 286 297 297 289 289 335 351 20 103 152 107 136 178 263 274 145 193 223 218 223 109 127 143 148 157 172 181 187 190 192
216 211 213 216 218 222 230 230 227 213 192 186 187 187 186 185 183 183 183 183 184 184 179 176 172 168 169 161 147 179 197 191 184 180 182 178 173 173 175 172 172 171 162 161 161 153 142 148 152 137 118 113 135 155 350 131 223 303 309 296 279 278 296 9 30 345 55 109 141 161 188 289 308 338 244 237 185 140 122 136 159 160 170 180 182 193 195 198
219 209 209 212 216 221 227 229 233 228 199 186 186 186 185 184 183 183 183 183 183 182 179 175 170 167 165 157 160 186 181 178 183 182 180 177 173 174 176 175 174 173 167 162 171 167 145 140 141 129 112 114 132 305 278 211 319 309 307 306 292 295 302 291 89 312 317 133 148 138 134 310 338 310 237 233 157 139 137 152 175 177 181 184 185 192 197 206
226 210 211 216 218 219 223 224 222 233 213 190 185 186 184 184 183 183 183 183 183 182 180 176 172 169 160 154 179 171 163 174 175 177 181 178 174 175 177 178 179 181 174 160 158 160 147 142 135 114 142 141 131 254 267 292 310 291 291 304 304 349 320 262 177 266 240 181 167 128 92 300 259 234 249 222 143 130 139 164 181 191 191 187 189 191 201 211
233 219 215 216 219 221 223 225 218 230 225 195 185 185 184 183 182 182 182 182 183 181 179 175 174 170 159 160 186 147 158 170 168 175 181 177 174 176 179 180 183 189 186 170 148 150 151 149 134 108 133 130 140 229 330 323 303 293 287 219 299 5 320 268 154 121 136 181 170 143 214 262 238 239 248 149 145 125 142 181 187 196 200 193 193 195 207 211
236 232 223 216 218 221 223 228 220 228 234 200 185 185 183 181 181 180 181 181 180 179 177 174 174 171 164 167 152 152 162 160 164 175 177 175 172 171 176 177 179 186 183 163 143 148 155 146 124 105 121 115 122 274 0 335 329 332 295 238 40 120 267 291 333 138 158 211 127 137 219 256 249 247 231 174 167 149 169 196 195 201 205 202 202 200 211 214
238 237 233 226 219 221 225 227 223 229 241 204 183 182 181 179 179 177 178 177 176 176 173 172 172 165 157 200 169 163 157 153 167 177 177 174 168 164 168 162 158 162 158 143 133 146 155 140 116 104 136 86 79 70 21 336 345 348 260 291 346 159 258 304 298 163 170 256 70 139 215 267 263 260 251 189 183 180 188 197 201 205 207 206 209 207 213 220
240 237 238 235 224 226 225 222 223 223 235 212 183 180 180 177 176 175 175 172 171 172 167 168 172 159 148 177 160 163 157 156 172 178 176 174 170 160 148 137 127 132 135 126 122 134 145 134 106 102 117 107 92 91 63 334 322 346 203 253 280 163 243 307 296 234 178 86 14 191 220 259 263 282 310 204 184 196 203 207 207 207 213 209 209 212 213 222
243 239 237 237 231 229 223 221 219 215 229 219 186 176 175 174 173 170 170 167 165 167 163 163 162 151 132 138 153 172 167 159 170 175 173 175 177 160 143 126 115 123 122 119 122 125 129 114 110 121 80 116 127 115 149 226 244 286 239 222 238 182 194 263 279 280 98 98 208 227 237 245 259 295 334 268 183 197 211 216 216 211 218 215 212 218 216 220
243 241 236 236 234 228 224 221 214 212 225 212 184 175 172 169 167 161 156 154 153 155 158 158 153 152 238 186 164 165 162 161 163 170 172 175 177 165 150 133 123 122 114 114 127 119 86 44 119 141 129 171 161 160 181 205 200 184 197 202 234 208 200 236 252 234 145 131 204 213 240 256 268 282 306 307 172 200 224 226 231 226 225 225 221 222 222 224
242 242 235 234 232 228 225 218 211 205 214 205 178 169 166 160 155 151 146 145 146 151 158 168 166 166 199 170 145 139 158 162 158 164 168 168 170 163 147 135 132 124 125 129 146 147 122 90 124 171 186 189 187 182 180 178 129 155 183 160 171 201 229 227 239 261 177 164 217 211 227 246 255 263 272 328 150 201 248 263 258 242 235 236 230 228 229 227
242 241 234 233 230 228 223 219 214 198 203 210 177 158 157 153 140 141 147 152 164 175 142 168 174 137 95 132 124 129 145 148 142 161 167 165 160 148 121 129 127 112 141 143 154 163 136 161 195 200 194 190 189 174 164 198 230 199 187 168 199 193 261 250 238 296 225 174 230 216 227 246 249 258 266 300 192 214 247 254 247 241 234 233 231 232 231 229
240 237 233 232 228 227 222 219 214 197 196 205 191 161 151 161 145 155 159 158 175 176 143 160 158 96 116 132 133 131 125 102 83 151 164 160 155 150 142 148 139 134 154 135 127 136 160 193 203 195 177 173 176 157 158 218 243 242 235 256 267 192 245 262 235 304 326 179 246 222 234 256 256 260 265 217 202 225 230 232 238 237 232 231 231 235 235 241
237 235 231 228 226 225 222 221 213 197 190 193 203 213 164 171 170 159 151 138 166 99 148 152 118 80 124 136 146 141 127 114 123 164 168 161 169 176 164 150 151 153 148 127 118 137 188 210 183 141 135 143 162 160 179 229 238 236 240 245 261 222 247 277 251 299 17 174 263 282 225 257 261 260 255 201 212 240 230 220 229 230 233 236 230 233 238 247
236 233 229 227 226 223 219 222 212 193 184 185 200 223 173 169 149 148 135 89 100 49 137 142 94 109 123 133 161 149 138 151 158 187 184 169 179 180 146 152 156 144 151 155 153 159 185 206 163 143 141 153 178 191 193 226 238 228 227 219 245 229 192 277 268 271 50 106 214 159 230 266 269 277 272 228 221 248 243 223 233 228 228 236 233 234 234 236
238 234 232 229 225 224 220 221 209 189 185 189 200 218 172 156 146 141 123 70 117 11 137 135 99 127 135 142 161 152 143 140 146 179 187 176 166 156 150 156 152 151 174 170 160 163 175 170 152 153 165 175 188 203 203 208 231 230 214 204 224 221 206 230 269 289 22 4 87 105 329 292 259 267 270 247 223 251 252 233 247 246 235 241 254 252 236 232
244 239 236 232 227 224 219 220 210 189 186 195 204 206 160 152 149 138 117 89 116 10 264 140 109 149 143 137 142 142 125 79 61 166 182 181 153 142 157 157 154 167 175 166 157 171 202 179 154 161 181 189 193 207 207 190 207 244 226 207 216 226 218 211 208 83 77 295 298 123 278 284 285 265 253 259 290 264 251 227 242 249 245 239 246 247 237 234
248 244 236 231 228 221 215 222 211 188 180 198 199 186 160 153 152 140 110 80 137 150 169 162 178 161 150 135 115 124 121 80 30 125 173 187 164 145 158 148 129 163 162 162 158 173 207 188 168 175 184 191 199 213 209 180 184 244 229 203 213 222 201 165 171 145 157 237 289 102 190 258 312 291 250 269 313 276 269 255 247 247 249 238 234 242 237 233
249 245 234 229 226 215 210 214 195 180 176 194 185 175 164 155 155 151 93 123 179 167 157 158 169 154 157 178 150 141 147 141 114 126 191 189 177 150 162 157 121 146 152 144 179 203 174 172 184 187 183 191 203 210 203 178 179 239 228 178 188 198 194 183 177 189 211 221 322 24 142 232 283 265 259 311 310 284 282 267 257 246 244 240 236 241 236 231
247 242 231 226 222 211 211 205 174 178 194 186 176 174 170 159 155 147 107 170 172 128 137 120 118 139 142 146 135 125 145 135 128 192 205 191 196 127 166 177 153 155 165 161 189 220 163 173 188 186 186 200 201 199 188 170 187 243 208 141 154 171 182 179 172 191 267 190 279 303 134 203 266 271 301 344 265 272 273 257 252 242 238 238 239 240 237 235
245 238 228 221 218 213 214 208 181 188 191 179 176 179 173 166 141 115 169 195 141 113 137 133 135 137 126 118 109 68 126 130 126 163 174 193 222 77 163 176 144 150 174 179 185 205 181 188 186 181 193 198 183 191 184 173 198 230 143 101 81 75 75 104 151 144 55 211 238 242 187 206 265 275 299 333 246 252 257 253 247 244 244 247 249 248 243 240
242 233 224 213 212 211 208 214 209 192 178 172 172 169 163 161 140 152 191 183 125 124 146 152 164 151 140 139 141 157 141 110 69 129 139 182 189 17 101 120 104 131 161 190 196 217 306 17 169 180 199 186 171 189 182 177 179 142 116 88 66 56 54 55 71 95 105 252 247 241 219 199 261 274 238 218 226 219 226 250 257 261 271 262 255 255 247 238
235 225 217 205 205 204 197 213 215 181 162 161 159 153 152 155 178 179 182 148 118 133 147 150 149 144 150 151 155 169 147 115 131 145 157 173 154 146 129 122 100 109 139 184 210 281 8 68 165 194 185 144 158 180 105 150 164 133 118 122 106 35 29 36 4 55 189 247 259 255 226 174 230 259 241 241 260 233 213 234 253 263 277 267 259 262 252 243
224 216 208 201 202 201 196 199 185 164 154 152 149 148 153 151 214 197 157 148 147 165 163 151 151 154 158 155 147 155 142 130 157 161 165 172 171 181 177 173 167 150 176 189 182 240 332 231 245 291 226 153 156 177 92 63 177 159 141 147 151 175 123 198 257 232 222 247 270 267 200 202 235 251 261 268 273 257 228 226 242 254 267 271 275 280 271 253
213 207 200 199 199 197 198 191 170 157 151 149 148 152 148 165 206 163 144 167 167 167 162 152 157 158 154 151 146 145 131 135 171 170 165 164 169 190 221 204 176 159 169 164 148 164 228 286 276 182 239 183 165 182 174 153 191 178 164 164 170 159 161 202 229 294 259 257 280 278 228 253 272 262 251 250 256 256 231 227 240 245 255 266 280 294 293 272
204 197 192 194 196 196 195 181 164 156 152 148 151 156 163 183 183 113 157 183 149 145 147 142 145 145 145 147 149 149 121 88 173 165 158 156 166 192 218 218 191 142 111 143 161 175 187 242 221 179 200 175 175 195 170 145 164 198 187 159 168 165 171 200 202 202 237 260 285 279 228 202 203 249 245 238 259 276 251 246 257 256 256 261 279 288 283 272
194 188 186 188 193 195 189 174 164 159 153 150 158 166 180 179 126 148 173 162 137 130 126 129 135 138 140 135 155 163 121 91 168 159 164 174 179 188 192 201 191 146 131 166 183 176 186 228 269 248 268 159 171 203 148 133 164 215 163 132 189 185 152 149 171 176 177 238 269 241 232 216 205 271 277 258 279 285 264 264 274 270 272 273 271 268 260 260
183 180 181 183 188 190 182 171 164 160 155 154 167 178 187 169 159 174 165 158 158 141 132 136 140 143 140 125 165 183 53 111 155 155 179 186 187 194 192 194 191 177 167 167 154 164 180 224 310 333 342 158 167 174 147 153 179 167 125 189 225 161 117 121 190 110 92 212 256 201 244 286 314 289 293 312 301 281 264 265 265 268 289 292 263 251 246 249
172 172 176 180 185 184 178 169 163 161 160 163 176 188 180 175 175 165 158 158 154 144 140 145 158 157 152 150 172 181 136 118 153 164 179 185 195 200 199 207 195 189 187 160 150 198 158 137 315 137 160 239 160 124 77 20 144 138 176 202 197 79 98 119 173 43 74 222 267 342 226 275 320 263 307 333 296 272 264 260 264 276 285 269 256 244 238 243
163 164 171 181 182 177 172 170 165 161 160 168 184 191 176 175 171 158 151 143 144 149 149 150 166 165 161 162 170 175 161 150 168 176 169 183 217 198 190 203 192 186 195 159 147 205 137 124 312 346 164 277 23 105 150 341 106 156 193 188 150 172 210 144 168 179 169 222 276 313 264 259 206 220 298 304 265 259 267 267 258 261 255 246 251 249 243 247
157 159 175 181 178 172 168 169 166 159 163 173 186 193 173 157 162 159 151 145 150 159 160 160 163 164 169 166 163 169 168 162 166 169 171 186 229 208 188 190 175 178 186 158 154 190 134 135 248 310 284 328 19 139 189 202 12 51 139 190 157 171 187 178 166 163 169 212 253 295 301 265 223 215 232 249 249 247 257 267 252 247 249 247 247 244 238 235
156 158 176 174 173 169 166 166 167 169 171 177 185 185 167 155 161 163 158 156 159 166 170 169 159 156 167 162 157 163 165 159 163 168 183 179 190 227 193 183 162 162 162 120 126 171 125 122 185 293 351 146 176 219 194 177 158 127 155 186 205 71 134 165 158 126 141 176 202 250 279 261 245 216 204 228 247 243 233 245 253 253 255 252 245 240 239 233
159 163 168 169 169 165 162 163 178 173 168 181 187 177 166 156 141 157 163 162 162 157 163 167 162 158 158 155 160 163 152 153 168 170 173 178 185 220 195 173 152 145 151 131 138 168 143 113 149 154 120 184 223 255 201 177 169 171 183 189 187 150 113 164 224 201 118 164 173 185 253 262 250 213 202 221 239 241 223 222 252 263 258 255 251 241 236 232
167 172 154 164 165 161 160 169 173 168 177 182 175 152 146 134 131 156 166 165 166 117 114 159 163 154 152 154 157 160 153 154 173 177 176 186 191 203 191 157 145 151 159 155 170 173 132 103 118 147 204 207 244 286 163 164 134 146 213 203 180 168 143 168 213 221 142 208 144 138 250 267 255 210 207 224 240 255 240 220 247 272 272 268 270 258 243 233
168 154 147 161 164 161 163 177 161 170 190 158 137 137 139 130 147 158 163 167 172 147 130 153 157 152 159 156 145 153 157 148 175 184 165 168 192 202 179 149 143 153 157 153 175 165 116 103 107 32 298 294 303 333 28 50 66 218 241 191 160 193 153 141 186 179 174 203 175 177 251 265 268 234 215 241 274 293 276 239 241 269 282 280 278 273 256 234
153 117 141 163 167 167 170 180 163 168 170 133 118 142 102 97 153 158 164 175 178 157 153 164 167 164 165 158 155 164 167 157 189 194 160 160 189 180 165 157 153 162 174 182 176 166 172 140 112 101 34 1 332 316 295 248 182 212 239 122 175 157 80 89 141 95 217 222 180 188 245 254 272 295 249 264 297 297 277 252 229 249 276 298 302 282 253 226
140 110 132 162 172 175 180 183 165 160 157 148 145 150 122 119 168 170 168 172 177 162 160 167 166 158 153 156 158 168 171 163 173 180 136 157 175 158 168 168 166 175 181 163 149 153 176 168 143 145 153 179 205 215 221 199 156 210 205 186 207 175 151 173 129 130 235 232 150 196 239 244 276 320 320 291 306 301 278 263 240 248 270 292 293 262 225 207
146 134 148 152 180 184 190 195 171 164 160 156 153 161 154 150 175 181 168 165 174 155 141 129 140 128 143 157 152 165 177 157 126 165 168 163 167 218 190 177 176 180 163 140 142 142 133 175 185 180 186 195 196 199 176 135 147 205 202 189 197 191 179 157 120 199 215 164 185 225 235 229 247 295 314 295 276 259 265 275 288 292 276 270 273 260 224 208
152 151 161 156 167 176 175 179 175 170 164 160 157 166 166 159 161 176 179 185 179 151 115 106 145 146 158 161 153 170 178 143 105 166 172 167 154 113 176 182 183 171 147 144 157 141 117 198 200 193 205 204 174 176 161 148 179 204 196 190 193 185 173 170 205 217 161 131 234 232 189 221 234 238 257 256 241 238 260 273 288 291 271 257 258 240 219 215
147 148 162 152 135 161 168 161 161 164 165 164 158 159 164 161 160 170 186 193 166 157 135 137 167 169 169 165 159 167 171 151 141 167 165 160 145 119 138 192 206 174 151 161 178 146 147 204 201 188 205 208 141 163 165 165 190 193 183 194 193 183 184 197 219 217 153 203 239 196 156 224 224 206 234 240 229 228 236 231 237 248 244 220 188 190 213 227
123 107 119 110 119 158 162 151 145 156 167 163 150 158 164 165 167 171 162 140 168 176 165 170 181 176 171 169 162 161 169 169 175 181 173 168 165 153 149 172 226 215 156 163 187 176 172 198 187 171 190 200 156 173 172 169 172 169 188 198 192 194 201 209 221 217 199 230 243 206 254 254 212 196 236 246 238 228 223 235 239 239 226 172 165 202 230 236
143 134 128 101 111 157 163 155 151 159 171 167 161 168 170 171 173 172 155 161 176 181 175 177 184 179 173 173 168 171 181 181 180 181 171 162 164 163 164 171 168 155 148 157 178 258 195 192 137 135 169 210 142 149 173 174 169 180 202 203 199 206 212 218 225 217 222 244 253 292 284 274 218 204 227 243 252 248 265 269 259 254 227 140 172 220 231 235
102 125 141 136 139 158 161 158 156 158 168 178 174 171 175 180 177 169 167 189 182 184 187 181 177 174 173 176 179 184 189 186 179 172 164 162 168 170 171 170 149 145 151 156 156 126 120 147 57 101 150 236 188 143 142 122 126 186 230 219 211 211 213 220 220 203 217 236 240 256 265 257 204 203 212 228 245 238 247 253 252 251 212 169 198 222 226 235
108 94 116 130 141 159 159 155 159 163 171 180 174 164 173 183 177 167 167 226 197 189 185 166 161 159 169 187 194 190 185 176 159 154 156 159 162 156 147 152 154 156 158 152 148 132 128 133 105 126 161 245 242 145 131 100 98 239 243 221 210 208 208 215 225 222 222 224 219 235 244 214 157 182 191 209 221 217 229 234 235 240 217 198 218 224 226 234